This is the latest recevied weather packets stored in our database for station/object WV6L-13. If no packets are shown the sender has not sent any weather packets the latest 10 day(s).
| Time | Temp. | Humidity | Pressure | Rain* | Wind** | Luminosity | Snow |
|---|---|---|---|---|---|---|---|
| 1777670395 | 27.78° C | 15% | 925.3 hPa | - | - | - | - |
| 1777670094 | 27.78° C | 15% | 925.2 hPa | - | - | - | - |
| 1777669795 | 27.22° C | 15% | 925.4 hPa | - | - | - | - |
| 1777669495 | 26.67° C | 16% | 925.4 hPa | - | - | - | - |
| 1777667695 | 27.22° C | 16% | 925.6 hPa | - | - | - | - |
| 1777666495 | 26.67° C | 16% | 925.8 hPa | - | - | - | - |
| 1777666200 | 26.11° C | 17% | 926.1 hPa | - | - | - | - |
| 1777665596 | 26.67° C | 17% | 925.9 hPa | - | - | - | - |
| 1777664095 | 26.67° C | 18% | 926 hPa | - | - | - | - |
| 1777663194 | 26.67° C | 18% | 926.2 hPa | - | - | - | - |
| 1777662896 | 26.11° C | 18% | 926.4 hPa | - | - | - | - |
| 1777662295 | 26.11° C | 19% | 926.4 hPa | - | - | - | - |
| 1777660495 | 25.56° C | 19% | 926.8 hPa | - | - | - | - |
| 1777659294 | 25° C | 20% | 927 hPa | - | - | - | - |
| 1777658995 | 24.44° C | 19% | 927.1 hPa | - | - | - | - |
| 1777658095 | 24.44° C | 19% | 927.3 hPa | - | - | - | - |
| 1777656895 | 23.89° C | 20% | 927.3 hPa | - | - | - | - |
| 1777655995 | 23.89° C | 20% | 927.2 hPa | - | - | - | - |
| 1777655695 | 24.44° C | 19% | 927.2 hPa | - | - | - | - |
| 1777652095 | 21.11° C | 22% | 926.9 hPa | - | - | - | - |
| 1777651795 | 21.67° C | 21% | 927 hPa | - | - | - | - |
| 1777650295 | 21.11° C | 22% | 926.7 hPa | - | - | - | - |
| 1777649995 | 20.56° C | 22% | 926.8 hPa | - | - | - | - |
| 1777649694 | 20° C | 23% | 926.8 hPa | - | - | - | - |
| 1777649395 | 20° C | 24% | 926.7 hPa | - | - | - | - |
* Rain since midnight (hover to see other rain measurements)
** Current wind speed in m/s (hover to see current wind gust speed)